Medford, WI

12:43 AM CDT on July 28, 2017 (GMT -0500)
Taylor County

Weather History for KMDZ - April, 2013

Change the Weather History Date:

Wednesday, April 10, 2013

  Actual Average Record
Temperature  
Mean Temperature 34 °F -  
Max Temperature 41 °F 46 °F 77 °F (1955)
Min Temperature 26 °F 28 °F 13 °F (1989)
Degree Days  
Heating Degree Days 32    
Moisture  
Dew Point 22 °F    
Average Humidity 62    
Maximum Humidity 93    
Minimum Humidity 38    
Precipitation  
Precipitation 0.00 in - - ()
Sea Level Pressure  
Sea Level Pressure 30.03 in    
Wind  
Wind Speed 11 mph (NE)    
Max Wind Speed 20 mph    
Max Gust Speed 26 mph    
Visibility 9 miles    
Events Snow    
Averages and records for this station are not official NWS values.
T = Trace of Precipitation, MM = Missing Value Source: NWS Daily Summary

Daily Weather History Graph

Daily Weather History Graph

Search for Another Location

Airport or City:

Trip Planner

Search our weather history database for the weather conditions in past years. The results will help you decide how hot, cold, wet, or windy it might be!

Date:

Astronomy

Apr. 10, 2013 Rise Set
Actual Time 6:24 AM CDT 7:40 PM CDT
Civil Twilight 5:54 AM CDT 8:11 PM CDT
Nautical Twilight 5:18 AM CDT 8:47 PM CDT
Astronomical Twilight 4:39 AM CDT 9:26 PM CDT
Moon 6:19 AM CDT (4/10) 8:19 PM CDT (4/10)
Length of Visible Light 14h 16m
Length of Day
13h 16m
New Moon, 0% of the Moon is Illuminated
Apr 10
New Moon
Apr 18
First Quarter
Apr 25
Full
May 2
Last Quarter
May 9
New

Hourly Weather History & Observations

Time (CDT) Temp. Windchill Dew Point Humidity Pressure Visibility Wind Dir Wind Speed Gust Speed Precip Events Conditions
12:15 AM 32.0 °F 24.2 °F 21.2 °F 64% 30.07 in 10.0 mi NNE 9.2 mph 17.3 mph N/A   Overcast
12:35 AM 32.0 °F 25.6 °F 21.2 °F 64% 30.14 in 7.0 mi NE 6.9 mph - N/A Snow Light Snow
12:55 AM 32.0 °F 27.5 °F 21.2 °F 64% 30.15 in 10.0 mi NE 4.6 mph - N/A Snow Light Snow
1:15 AM 30.2 °F 21.9 °F 24.8 °F 80% 30.14 in 1.2 mi NE 9.2 mph - N/A Snow Light Snow
1:35 AM 28.4 °F 18.5 °F 24.8 °F 86% 30.13 in 1.8 mi NE 11.5 mph - N/A Snow Light Snow
1:55 AM 28.4 °F 19.1 °F 26.6 °F 93% 30.10 in 4.0 mi NE 10.4 mph 17.3 mph N/A Snow Light Snow
2:15 AM 28.4 °F 17.5 °F 24.8 °F 86% 30.09 in 7.0 mi NE 13.8 mph 17.3 mph N/A Snow Light Snow
2:35 AM 28.4 °F 18.5 °F 24.8 °F 86% 30.09 in 5.0 mi NNE 11.5 mph - N/A Snow Light Snow
2:55 AM 28.4 °F 18.5 °F 24.8 °F 86% 30.09 in 7.0 mi NE 11.5 mph 20.7 mph N/A Snow Light Snow
3:15 AM 28.4 °F 19.7 °F 24.8 °F 86% 30.10 in 3.0 mi NE 9.2 mph 17.3 mph N/A Snow Light Snow
3:35 AM 28.4 °F 19.1 °F 24.8 °F 86% 30.10 in 1.5 mi NNE 10.4 mph - N/A Snow Light Snow
3:55 AM 28.4 °F 18.5 °F 26.6 °F 93% 30.06 in 2.5 mi NE 11.5 mph - N/A Snow Light Snow
4:15 AM 26.6 °F 13.1 °F 24.8 °F 93% 29.99 in 2.5 mi ENE 19.6 mph 26.5 mph N/A Snow Light Snow
4:35 AM 28.4 °F 17.0 °F 24.8 °F 86% 30.01 in 10.0 mi ENE 15.0 mph 21.9 mph N/A   Scattered Clouds
4:55 AM 28.4 °F 17.0 °F 24.8 °F 86% 29.99 in 10.0 mi NE 15.0 mph 24.2 mph N/A   Clear
5:15 AM 28.4 °F 18.5 °F 24.8 °F 86% 30.01 in 10.0 mi NE 11.5 mph - N/A   Clear
5:35 AM 28.4 °F 20.4 °F 23.0 °F 80% 30.06 in 10.0 mi ENE 8.1 mph - N/A   Scattered Clouds
5:55 AM 28.4 °F 21.2 °F 23.0 °F 80% 30.07 in 10.0 mi NE 6.9 mph - N/A   Overcast
6:15 AM 28.4 °F 23.3 °F 23.0 °F 80% 30.10 in 10.0 mi NE 4.6 mph - N/A   Overcast
6:35 AM 30.2 °F 24.3 °F 24.8 °F 80% 30.11 in 10.0 mi North 5.8 mph - N/A   Overcast
6:55 AM 30.2 °F 22.6 °F 23.0 °F 75% 30.11 in 10.0 mi North 8.1 mph - N/A   Overcast
7:15 AM 30.2 °F 21.3 °F 23.0 °F 75% 30.07 in 10.0 mi NNE 10.4 mph - N/A   Overcast
7:35 AM 30.2 °F 19.3 °F 21.2 °F 69% 30.01 in 10.0 mi NE 15.0 mph 19.6 mph N/A   Overcast
7:55 AM 30.2 °F 18.9 °F 21.2 °F 69% 29.97 in 10.0 mi ENE 16.1 mph 26.5 mph N/A   Scattered Clouds
8:15 AM 30.2 °F 18.5 °F 21.2 °F 69% 29.96 in 10.0 mi ENE 17.3 mph 25.3 mph N/A   Clear
8:35 AM 30.2 °F 18.9 °F 21.2 °F 69% 29.97 in 10.0 mi ENE 16.1 mph 24.2 mph N/A   Clear
8:55 AM 32.0 °F 23.6 °F 23.0 °F 69% 30.03 in 10.0 mi NE 10.4 mph 20.7 mph N/A   Scattered Clouds
9:15 AM 33.8 °F 25.8 °F 23.0 °F 65% 30.05 in 10.0 mi NNE 10.4 mph - N/A   Mostly Cloudy
9:55 AM 33.8 °F 27.0 °F 23.0 °F 65% 30.07 in 10.0 mi NE 8.1 mph - N/A   Overcast
10:15 AM 33.8 °F 25.3 °F 23.0 °F 65% 30.07 in 10.0 mi ENE 11.5 mph - N/A   Overcast
10:35 AM 33.8 °F 24.8 °F 23.0 °F 65% 30.05 in 10.0 mi NE 12.7 mph 19.6 mph N/A   Overcast
10:55 AM 33.8 °F 24.8 °F 23.0 °F 65% 30.05 in 10.0 mi ENE 12.7 mph 19.6 mph N/A   Overcast
11:15 AM 33.8 °F 25.8 °F 23.0 °F 65% 30.04 in 10.0 mi NE 10.4 mph - N/A   Overcast
11:35 AM 35.6 °F 28.0 °F 23.0 °F 60% 30.05 in 10.0 mi NE 10.4 mph - N/A   Overcast
12:15 PM 35.6 °F 28.0 °F 24.8 °F 65% 30.08 in 10.0 mi ENE 10.4 mph - N/A   Overcast
12:35 PM 35.6 °F 27.5 °F 24.8 °F 65% 30.07 in 10.0 mi NE 11.5 mph - N/A   Overcast
12:55 PM 35.6 °F 28.0 °F 24.8 °F 65% 30.06 in 10.0 mi ENE 10.4 mph - N/A   Overcast
1:15 PM 35.6 °F 28.6 °F 24.8 °F 65% 30.06 in 10.0 mi ENE 9.2 mph - N/A   Overcast
1:35 PM 37.4 °F 30.3 °F 24.8 °F 60% 30.05 in 10.0 mi NE 10.4 mph - N/A   Overcast
1:55 PM 37.4 °F 29.8 °F 24.8 °F 60% 30.05 in 10.0 mi NE 11.5 mph 16.1 mph N/A   Overcast
2:15 PM 37.4 °F 29.8 °F 24.8 °F 60% 30.04 in 10.0 mi NE 11.5 mph - N/A   Overcast
2:35 PM 39.2 °F 31.6 °F 24.8 °F 56% 30.04 in 10.0 mi ENE 12.7 mph 17.3 mph N/A   Overcast
2:55 PM 39.2 °F 30.8 °F 21.2 °F 49% 30.02 in 10.0 mi ENE 15.0 mph 20.7 mph N/A   Mostly Cloudy
3:15 PM 39.2 °F 32.5 °F 21.2 °F 49% 30.03 in 10.0 mi ENE 10.4 mph 18.4 mph N/A   Mostly Cloudy
3:35 PM 39.2 °F 32.0 °F 19.4 °F 45% 30.03 in 10.0 mi ENE 11.5 mph 17.3 mph N/A   Overcast
3:55 PM 39.2 °F 33.6 °F 21.2 °F 49% 30.03 in 10.0 mi East 8.1 mph - N/A   Overcast
4:15 PM 41.0 °F 34.7 °F 21.2 °F 45% 30.03 in 10.0 mi East 10.4 mph - N/A   Overcast
4:35 PM 39.2 °F 33.6 °F 21.2 °F 49% 30.01 in 10.0 mi East 8.1 mph - N/A   Overcast
4:55 PM 39.2 °F 35.0 °F 24.8 °F 56% 30.02 in 10.0 mi East 5.8 mph - N/A   Overcast
5:35 PM 41.0 °F 34.3 °F 19.4 °F 42% 30.00 in 10.0 mi ENE 11.5 mph - N/A   Overcast
5:55 PM 41.0 °F 35.8 °F 19.4 °F 42% 30.01 in 10.0 mi NE 8.1 mph - N/A   Overcast
6:15 PM 41.0 °F 34.7 °F 19.4 °F 42% 30.01 in 10.0 mi NE 10.4 mph - N/A   Overcast
6:35 PM 39.2 °F 32.0 °F 19.4 °F 45% 29.99 in 10.0 mi NE 11.5 mph - N/A   Overcast
6:55 PM 39.2 °F 33.6 °F 17.6 °F 42% 30.01 in 10.0 mi NE 8.1 mph 16.1 mph N/A   Overcast
7:15 PM 39.2 °F 32.0 °F 17.6 °F 42% 29.98 in 10.0 mi NE 11.5 mph - N/A   Overcast
7:35 PM 39.2 °F 31.6 °F 17.6 °F 42% 29.97 in 10.0 mi ENE 12.7 mph 19.6 mph N/A   Overcast
7:55 PM 39.2 °F 30.8 °F 17.6 °F 42% 29.95 in 10.0 mi ENE 15.0 mph 18.4 mph N/A   Overcast
8:15 PM 39.2 °F 31.6 °F 17.6 °F 42% 29.94 in 10.0 mi ENE 12.7 mph 18.4 mph N/A   Overcast
8:35 PM 39.2 °F 31.6 °F 15.8 °F 39% 29.96 in 10.0 mi ENE 12.7 mph 23.0 mph N/A   Overcast
8:55 PM 37.4 °F 28.5 °F 15.8 °F 41% 29.97 in 10.0 mi ENE 15.0 mph 18.4 mph N/A   Overcast
9:15 PM 37.4 °F 28.5 °F 15.8 °F 41% 29.98 in 10.0 mi ENE 15.0 mph 20.7 mph N/A   Overcast
9:35 PM 37.4 °F 28.5 °F 15.8 °F 41% 29.99 in 10.0 mi East 15.0 mph 21.9 mph N/A   Overcast
9:55 PM 37.4 °F 29.3 °F 15.8 °F 41% 29.99 in 10.0 mi East 12.7 mph 23.0 mph N/A   Mostly Cloudy
10:15 PM 37.4 °F 29.3 °F 17.6 °F 45% 29.98 in 10.0 mi ENE 12.7 mph 21.9 mph N/A   Mostly Cloudy
10:35 PM 37.4 °F 28.5 °F 15.8 °F 41% 29.97 in 10.0 mi ENE 15.0 mph 19.6 mph N/A   Overcast
10:55 PM 35.6 °F 26.6 °F 15.8 °F 44% 29.96 in 10.0 mi ENE 13.8 mph 20.7 mph N/A   Scattered Clouds
11:15 PM 35.6 °F 26.6 °F 15.8 °F 44% 29.95 in 10.0 mi ENE 13.8 mph 25.3 mph N/A   Clear
11:35 PM 35.6 °F 27.1 °F 15.8 °F 44% 29.94 in 10.0 mi ENE 12.7 mph 23.0 mph N/A   Clear
11:55 PM 35.6 °F 25.5 °F 12.2 °F 38% 29.92 in 10.0 mi East 17.3 mph 23.0 mph N/A   Clear